Weather History for Paganella, Italy

Change the Weather History Date:

Friday, September 7, 2012

  Actual Average Record
Temperature  
Mean Temperature 51 °F -  
Max Temperature 56 °F 48 °F 62 °F (2006)
Min Temperature 46 °F 39 °F 33 °F (2007)
Degree Days  
Heating Degree Days 14    
Growing Degree Days 1 (Base 50)    
Moisture  
Dew Point 44 °F    
Average Humidity 77    
Maximum Humidity 95    
Minimum Humidity 48    
Precipitation  
Precipitation 0.00 in 0.11 in - ()
Sea Level Pressure  
Sea Level Pressure 30.39 in    
Wind  
Wind Speed 3 mph ()    
Max Wind Speed 10 mph    
Max Gust Speed -    
Visibility 3.4 miles    
Events Fog    
Averages and records for this station are not official NWS values.
T = Trace of Precipitation, MM = Missing Value Source: Averaged Metar Reports

Daily Weather History Graph

Daily Weather History Graph

Search for Another Location

Airport:

Trip Planner

Search our weather history database for the weather conditions in past years. The results will help you decide how hot, cold, wet, or windy it might be!

Date:

Astronomy

Sep. 07, 2012 Rise Set
Actual Time 6:44 AM CEST 7:42 PM CEST
Civil Twilight 6:13 AM CEST 8:12 PM CEST
Nautical Twilight 5:37 AM CEST 8:49 PM CEST
Astronomical Twilight 4:58 AM CEST 9:27 PM CEST
Moon 11:00 PM CEST (9/7) 1:45 PM CEST (9/7)
Length of Visible Light 13h 59m
Length of Day
12h 58m
Waning Gibbous, 61% of the Moon is Illuminated
Sep 7
Waning Gibbous
Sep 8
Last Quarter
Sep 16
New
Sep 22
First Quarter
Sep 30
Full

Hourly Weather History & Observations

Time (CEST) Temp. Windchill Dew Point Humidity Pressure Visibility Wind Dir Wind Speed Gust Speed Precip Events Conditions
12:55 AM 50.0 °F - 41.0 °F 71% 30.39 in - SW 3.5 mph - N/A   Clear
1:55 AM 48.2 °F - 44.6 °F 87% 30.39 in - SSW 2.3 mph - N/A   Clear
2:00 AM 49 °F - 44 °F 77%  in 12 mi SSW 2.3 mph - -  
2:55 AM 48.2 °F - 46.4 °F 93% 30.39 in 0.2 mi South 6.9 mph - N/A Fog Fog
3:55 AM 48.2 °F - 46.4 °F 93% 30.36 in 0.4 mi SW 8.1 mph - N/A Fog Fog
4:55 AM 48.2 °F - 46.4 °F 93% 30.36 in 0.2 mi SSW 4.6 mph - N/A Fog Fog
5:00 AM 47 °F - 46 °F 95%  in 0 mi SSW 4.6 mph - - Fog Heavy Fog
5:55 AM 48.2 °F - 46.4 °F 93% 30.36 in 0.2 mi SSW 5.8 mph - N/A Fog Fog
6:55 AM 46.4 °F 43.5 °F 44.6 °F 93% 30.36 in 0.3 mi WSW 5.8 mph - N/A Fog Fog
7:55 AM 46.4 °F 45.2 °F 44.6 °F 93% 30.36 in 2.5 mi WSW 3.5 mph - N/A   Mist
8:00 AM 47 °F - 45 °F 89%  in 1 mi WSW 3.5 mph - - Fog Light Fog
8:55 AM 48.2 °F - 44.6 °F 87% 30.39 in 1.9 mi SSW 3.5 mph - N/A   Mist
9:55 AM 48.2 °F - 44.6 °F 87% 30.39 in 1.2 mi Variable 1.2 mph - N/A   Mist
10:55 AM 50.0 °F - 44.6 °F 82% 30.42 in 1.2 mi Variable 2.3 mph - N/A   Mist
11:00 AM 49 °F - 44 °F 78%  in 1 mi 2.3 mph - -   Mist
11:55 AM 50.0 °F - 44.6 °F 82% 30.42 in 0.9 mi Variable 2.3 mph - N/A   Mist
12:55 PM 51.8 °F - 46.4 °F 82% 30.42 in 0.9 mi Variable 2.3 mph - N/A   Mist
1:55 PM 53.6 °F - 48.2 °F 82% 30.42 in 1.2 mi Variable 2.3 mph - N/A   Scattered Clouds
2:00 PM 53 °F - 48 °F 77%  in 1 mi 2.3 mph - -   Mist
2:55 PM 53.6 °F - 50.0 °F 88% 30.39 in 6.2 mi Calm Calm - N/A   Scattered Clouds
3:55 PM 55.4 °F - 46.4 °F 72% 30.39 in 6.2 mi South 3.5 mph - N/A   Partly Cloudy
4:55 PM 55.4 °F - 46.4 °F 72% 30.39 in - Calm Calm - N/A   Clear
5:00 PM 55 °F - 46 °F 63%  in 12 mi Calm Calm - -   Scattered Clouds
5:55 PM 55.4 °F - 41.0 °F 58% 30.39 in - Calm Calm - N/A   Clear
6:55 PM 53.6 °F - 41.0 °F 62% 30.39 in - WNW 3.5 mph - N/A   Clear
7:55 PM 55.4 °F - 46.4 °F 72% 30.39 in - Variable 2.3 mph - N/A   Clear
8:00 PM 55 °F - 47 °F 65%  in 12 mi 2.3 mph - -  
8:55 PM 53.6 °F - 35.6 °F 51% 30.39 in - NW 4.6 mph - N/A   Clear
9:55 PM 53.6 °F - 37.4 °F 54% 30.39 in - North 6.9 mph - N/A   Clear
10:55 PM 51.8 °F - 39.2 °F 62% 30.39 in - NNE 8.1 mph - N/A   Clear
11:00 PM 52 °F - 38 °F 48%  in 12 mi NNE 8.1 mph - -  
11:55 PM 50.0 °F - 42.8 °F 76% 30.39 in - NNE 10.4 mph - N/A   Clear